Starlink 5280

operational
NORAD ID: 54166 Int'l Des: 2022-141 Owner: SPXS Country: US Constellation: starlink
LEOCIRCULAR

Über Starlink 5280

Beschreibung wird geladen...

Live-Position

3D-Globus wird geladen...

Nächste Überflüge

Höhenverlauf

Altitude vs Time

uPlot chart will show altitude changes over time

Zweizeiliger Elementsatz

1 54166U 22141K 25303.77882203 .00001725 00000-0 12646-3 0 9999
2 54166 53.2173 227.4444 0001397 92.4022 267.7130 15.08839946166249
Epoch: 30. Okt. 2025 • Age: 7 hours

Aktueller Status

Höhe 555.2 km
Geschwindigkeit 7.58 km/s
Subsatellitenpunkt -43.61°S, 19.93°E
Startdatum 28. Okt. 2022
Alter 3 years
Typ internet

Technische Details

Klassifizierung Payload
Masse 305.00 kg
Trockenmasse 290.00 kg
Gesamtmasse 305.00 kg
Länge 0.20 m
Durchmesser 2.80 m
Spannweite 9.00 m
Form Box + pan
Hersteller SPXS
Bus-Typ Starlink
Phasenstatus In Orbit
Besitzer/Staat SPXS/US

Große Konstellationen

Loading constellations...